GW5362 Weather Reports


time (UTC)temp
C
wind
direction
speed
KPH
gust
KPH
rain 1hr
cm
rain 24hr
cm
rain mn
cm
humidity
%
barometer
mb
20260505153007 25 42 0.0 17.7 0.00 0.00 0.00 47 1012.2
20260505152507 25 26 3.2 17.7 0.00 0.00 0.00 43 1012.2
20260505152003 25 236 3.2 16.1 0.00 0.00 0.00 44 1012.1
20260505151511 24 165 3.2 16.1 0.00 0.00 0.00 47 1012.2
20260505151003 24 142 0.0 16.1 0.00 0.00 0.00 46 1012.1
20260505150503 24 136 1.6 12.9 0.00 0.00 0.00 48 1012.1
20260505140504 21 186 1.6 16.1 0.00 0.00 0.00 54 1012.3
20260505125004 17 159 1.6 8.0 0.00 0.00 0.00 60 1012.4
20260505124518 17 175 0.0 6.4 0.00 0.00 0.00 61 1012.5
20260505124003 17 221 1.6 8.0 0.00 0.00 0.00 61 1012.7
20260505123505 17 250 1.6 9.7 0.00 0.00 0.00 63 1012.8
20260505123021 17 165 1.6 9.7 0.00 0.00 0.00 63 1012.8
20260505122503 16 213 0.0 12.9 0.00 0.00 0.00 63 1012.8
20260505122007 16 206 0.0 12.9 0.00 0.00 0.00 65 1012.7
20260505121520 16 236 1.6 11.3 0.00 0.00 0.00 67 1012.6
20260505121007 16 244 0.0 8.0 0.00 0.00 0.00 67 1012.5
20260505120504 15 192 0.0 9.7 0.00 0.00 0.00 68 1012.6
20260505120014 15 229 1.6 9.7 0.00 0.00 0.00 70 1012.7
20260505115504 15 219 0.0 6.4 0.00 0.00 0.00 71 1012.6
20260505115006 14 223 0.0 4.8 0.00 0.00 0.00 72 1012.6
20260505114513 14 242 0.0 4.8 0.00 0.00 0.00 73 1012.5
20260505114007 14 242 0.0 4.8 0.00 0.00 0.00 74 1012.6
20260505113507 13 182 0.0 1.6 0.00 0.00 0.00 74 1012.3
20260505113010 13 182 0.0 1.6 0.00 0.00 0.00 75 1012.2
20260505112504 13 182 0.0 1.6 0.00 0.00 0.00 76 1012.2
20260505112008 12 182 0.0 1.6 0.00 0.00 0.00 77 1012.3
20260505111538 12 182 0.0 1.6 0.00 0.00 0.00 77 1012.2
20260505111006 12 182 0.0 0.0 0.00 0.00 0.00 78 1012.3
20260505110507 12 182 0.0 1.6 0.00 0.00 0.00 78 1012.3
20260505102002 11 182 0.0 3.2 0.00 0.00 0.00 81 1011.7
20260505101526 11 172 0.0 4.8 0.00 0.00 0.00 82 1011.6
20260505101008 11 173 0.0 4.8 0.00 0.00 0.00 82 1011.6
20260505100508 11 175 0.0 0.0 0.00 0.00 0.00 83 1011.6
20260505100018 11 175 0.0 0.0 0.00 0.00 0.00 83 1011.5
20260505095505 11 175 0.0 0.0 0.00 0.00 0.00 83 1011.6
20260505095010 11 175 0.0 0.0 0.00 0.00 0.00 83 1011.6
20260505094513 11 175 0.0 0.0 0.00 0.00 0.00 82 1011.6
20260505094005 11 175 0.0 1.6 0.00 0.00 0.00 82 1011.5
20260505093504 11 175 0.0 1.6 0.00 0.00 0.00 82 1011.5
20260505093015 11 175 0.0 1.6 0.00 0.00 0.00 82 1011.5
20260505092504 11 175 0.0 1.6 0.00 0.00 0.00 82 1011.4
20260505092009 11 175 0.0 0.0 0.00 0.00 0.00 82 1011.4
20260505091522 11 175 0.0 0.0 0.00 0.00 0.00 82 1011.3
20260505091007 11 175 0.0 0.0 0.00 0.00 0.00 83 1011.4
20260505090504 11 175 0.0 0.0 0.00 0.00 0.00 83 1011.3
20260505090029 11 175 0.0 0.0 0.00 0.00 0.00 83 1011.4
20260505085511 11 175 0.0 0.0 0.00 0.00 0.00 82 1011.3
20260505085006 11 175 0.0 0.0 0.00 0.00 0.00 82 1011.4
20260505084529 11 175 0.0 0.0 0.00 0.00 0.00 83 1011.4
20260505084007 11 175 0.0 0.0 0.00 0.00 0.00 83 1011.3
20260505083507 11 175 0.0 6.4 0.00 0.00 0.00 83 1011.4
20260505083015 11 175 0.0 6.4 0.00 0.00 0.00 83 1011.4
20260505082503 11 198 0.0 0.0 0.00 0.00 0.00 83 1011.4
20260505082003 11 198 0.0 0.0 0.00 0.00 0.00 83 1011.3
20260505081517 11 198 0.0 0.0 0.00 0.00 0.00 83 1011.2
20260505081007 11 198 0.0 0.0 0.00 0.00 0.00 83 1011.2
20260505080505 11 198 0.0 3.2 0.00 0.00 0.00 83 1011.2
20260505080024 11 198 0.0 3.2 0.00 0.00 0.00 83 1011.2
20260505075507 11 199 0.0 1.6 0.00 0.00 0.00 83 1011.1
20260505075010 11 199 0.0 1.6 0.00 0.00 0.00 83 1011.2
20260505074509 11 199 0.0 0.0 0.00 0.00 0.00 82 1011.1
20260505074003 11 198 0.0 0.0 0.00 0.00 0.00 81 1011.0
20260505073503 11 198 0.0 0.0 0.00 0.00 0.00 81 1010.9
20260505073012 11 198 0.0 0.0 0.00 0.00 0.00 81 1010.8
20260505072506 11 198 0.0 0.0 0.00 0.00 0.00 81 1010.8
20260505072003 11 198 0.0 0.0 0.00 0.00 0.00 81 1010.8
20260505071518 12 198 0.0 0.0 0.00 0.00 0.00 80 1010.8
20260505071004 12 198 0.0 0.0 0.00 0.00 0.00 80 1010.8
20260505070504 12 198 0.0 0.0 0.00 0.00 0.00 80 1010.9
20260505070024 12 198 0.0 0.0 0.00 0.00 0.00 80 1010.9
20260505065507 12 198 0.0 0.0 0.00 0.00 0.00 80 1010.8
20260505065003 12 198 0.0 0.0 0.00 0.00 0.00 79 1010.8
20260505064519 12 198 0.0 0.0 0.00 0.00 0.00 79 1010.9
20260505064008 12 198 0.0 0.0 0.00 0.00 0.00 79 1010.9
20260505063503 12 198 0.0 0.0 0.00 0.00 0.00 78 1010.8
20260505063014 12 198 0.0 0.0 0.00 0.00 0.00 78 1010.8
20260505062503 12 198 0.0 0.0 0.00 0.00 0.00 78 1010.8
20260505062003 12 198 0.0 0.0 0.00 0.00 0.00 78 1010.8
20260505061512 13 198 0.0 0.0 0.00 0.00 0.00 78 1010.8
20260505061004 13 198 0.0 0.0 0.00 0.00 0.00 78 1010.8
20260505060504 13 198 0.0 0.0 0.00 0.00 0.00 77 1010.9
20260505060008 13 198 0.0 0.0 0.00 0.00 0.00 78 1010.9
20260505055505 13 198 0.0 0.0 0.00 0.00 0.00 77 1010.8
20260505055007 13 198 0.0 0.0 0.00 0.00 0.00 77 1010.9
20260505054524 13 198 0.0 0.0 0.00 0.00 0.00 76 1010.8
20260505054004 13 198 0.0 0.0 0.00 0.00 0.00 76 1010.8
20260505053507 13 198 0.0 0.0 0.00 0.00 0.00 76 1010.8
20260505053027 13 198 0.0 0.0 0.00 0.00 0.00 76 1010.9
20260505052504 13 198 0.0 0.0 0.00 0.00 0.00 75 1010.8
20260505052007 13 198 0.0 0.0 0.00 0.00 0.00 75 1010.8
20260505051506 13 198 0.0 0.0 0.00 0.00 0.00 75 1010.8
20260505051005 14 198 0.0 0.0 0.00 0.00 0.00 74 1010.9
20260505050507 14 198 0.0 0.0 0.00 0.00 0.00 74 1010.9
20260505041526 15 198 0.0 1.6 0.00 0.00 0.00 67 1011.0
20260505041003 16 198 0.0 1.6 0.00 0.00 0.00 67 1011.0
20260505040506 16 198 0.0 0.0 0.00 0.00 0.00 67 1011.0
20260505040024 16 198 0.0 0.0 0.00 0.00 0.00 68 1011.1
20260505035508 16 198 0.0 0.0 0.00 0.00 0.00 66 1011.0
20260505035004 16 198 0.0 0.0 0.00 0.00 0.00 66 1011.1
20260505034523 16 198 0.0 0.0 0.00 0.00 0.00 66 1010.9
20260505034003 16 198 0.0 0.0 0.00 0.00 0.00 65 1011.0
20260505033504 16 198 0.0 0.0 0.00 0.00 0.00 65 1011.1
20260505033020 17 198 0.0 0.0 0.00 0.00 0.00 64 1011.0
20260505032512 17 198 0.0 0.0 0.00 0.00 0.00 63 1011.0
20260505032006 17 198 0.0 0.0 0.00 0.00 0.00 62 1011.1
20260505031518 17 198 0.0 0.0 0.00 0.00 0.00 61 1011.1
20260505031009 17 198 0.0 1.6 0.00 0.00 0.00 61 1011.1
20260505030511 17 198 0.0 3.2 0.00 0.00 0.00 61 1011.0
20260505030018 17 198 0.0 3.2 0.00 0.00 0.00 61 1011.0
20260505025509 17 201 0.0 0.0 0.00 0.00 0.00 60 1011.0
20260505025004 17 202 0.0 3.2 0.00 0.00 0.00 60 1010.9
20260505024512 17 202 0.0 3.2 0.00 0.00 0.00 59 1010.9
20260505024005 18 201 0.0 6.4 0.00 0.00 0.00 58 1010.9
20260505023504 18 207 0.0 6.4 0.00 0.00 0.00 58 1010.8
20260505023019 18 130 0.0 0.0 0.00 0.00 0.00 57 1010.8
20260505022505 18 130 0.0 0.0 0.00 0.00 0.00 57 1010.8
20260505022009 18 130 0.0 1.6 0.00 0.00 0.00 57 1010.9
20260505021526 18 130 0.0 14.5 0.00 0.00 0.00 56 1010.8
20260505021007 18 130 0.0 14.5 0.00 0.00 0.00 56 1010.8
20260505020505 18 217 0.0 6.4 0.00 0.00 0.00 55 1010.8
20260505020035 18 217 0.0 6.4 0.00 0.00 0.00 55 1010.8
20260505015508 18 254 0.0 6.4 0.00 0.00 0.00 55 1010.8
20260505015009 18 159 0.0 6.4 0.00 0.00 0.00 54 1010.7
20260505014521 18 165 0.0 6.4 0.00 0.00 0.00 54 1010.7
20260505014007 18 162 0.0 6.4 0.00 0.00 0.00 54 1010.6
20260505013503 18 138 0.0 6.4 0.00 0.00 0.00 54 1010.6
20260505013018 19 211 0.0 4.8 0.00 0.00 0.00 53 1010.5
20260505012508 19 180 0.0 1.6 0.00 0.00 0.00 52 1010.5
20260505012008 19 180 0.0 1.6 0.00 0.00 0.00 52 1010.4
20260505011518 19 181 0.0 0.0 0.00 0.00 0.00 52 1010.2
20260505011007 20 181 0.0 1.6 0.00 0.00 0.00 51 1010.2
20260505010507 20 181 0.0 3.2 0.00 0.00 0.00 51 1010.1
20260505010027 20 181 0.0 3.2 0.00 0.00 0.00 50 1010.0
20260505005504 20 180 0.0 3.2 0.00 0.00 0.00 50 1010.1
20260505005011 20 180 0.0 3.2 0.00 0.00 0.00 50 1010.0
20260505004528 20 182 0.0 8.0 0.00 0.00 0.00 50 1010.0
20260505004008 20 184 0.0 8.0 0.00 0.00 0.00 49 1010.0
20260505003512 20 251 0.0 4.8 0.00 0.00 0.00 49 1009.8
20260505003027 20 251 0.0 4.8 0.00 0.00 0.00 48 1009.7
20260505002503 20 259 0.0 4.8 0.00 0.00 0.00 48 1009.7
20260505002007 21 269 0.0 4.8 0.00 0.00 0.00 48 1009.6
20260505001520 21 275 0.0 3.2 0.00 0.00 0.00 48 1009.5
20260505001007 21 275 0.0 6.4 0.00 0.00 0.00 47 1009.5
20260505000507 21 287 0.0 6.4 0.00 0.00 0.00 47 1009.5
20260505000040 21 240 0.0 6.4 0.00 0.00 0.00 46 1009.5
20260504235508 21 180 0.0 4.8 0.00 0.00 0.00 46 1009.6
20260504235008 21 221 0.0 3.2 0.00 0.00 0.00 46 1009.6
20260504234525 21 244 0.0 3.2 0.00 0.00 0.00 44 1009.5
20260504234007 21 211 0.0 4.8 0.00 0.00 0.00 44 1009.5
20260504233508 21 205 0.0 8.0 0.00 0.00 0.00 44 1009.4
20260504233012 22 165 0.0 8.0 0.00 0.00 0.00 43 1009.3
20260504232503 22 211 0.0 6.4 0.00 0.00 0.00 43 1009.3
20260504232003 22 171 0.0 8.0 0.00 0.00 0.00 44 1009.4
20260504231516 22 167 0.0 9.7 0.00 0.00 0.00 44 1009.3
20260504231013 22 263 0.0 12.9 0.00 0.00 0.00 42 1009.3
20260504230503 22 253 1.6 14.5 0.00 0.00 0.00 43 1009.3
20260504230010 22 239 0.0 14.5 0.00 0.00 0.00 41 1009.3
20260504225500 22 329 1.6 8.0 0.00 0.00 0.00 41 1009.3
20260504225003 22 218 1.6 12.9 0.00 0.00 0.00 41 1009.3
20260504224505 22 206 1.6 12.9 0.00 0.00 0.00 40 1009.3
20260504224002 22 129 1.6 9.7 0.00 0.00 0.00 41 1009.3
20260504223501 22 238 1.6 19.3 0.00 0.00 0.00 40 1009.3
20260504223005 22 130 1.6 19.3 0.00 0.00 0.00 39 1009.3
20260504222504 23 185 3.2 17.7 0.00 0.00 0.00 40 1009.2
20260504222003 23 210 1.6 11.3 0.00 0.00 0.00 40 1009.2
20260504221504 23 220 0.0 9.7 0.00 0.00 0.00 39 1009.3
20260504221004 23 155 0.0 11.3 0.00 0.00 0.00 39 1009.4
20260504220504 23 151 1.6 14.5 0.00 0.00 0.00 39 1009.4
20260504220038 23 222 0.0 14.5 0.00 0.00 0.00 39 1009.3
20260504215506 23 200 0.0 16.1 0.00 0.00 0.00 39 1009.3
20260504215008 23 183 1.6 17.7 0.00 0.00 0.00 38 1009.2
20260504214504 23 178 1.6 17.7 0.00 0.00 0.00 38 1009.2
20260504214001 23 166 1.6 12.9 0.00 0.00 0.00 38 1009.3
20260504213501 23 255 3.2 12.9 0.00 0.00 0.00 37 1009.5
20260504213008 23 266 1.6 14.5 0.00 0.00 0.00 38 1009.4
20260504212505 23 148 1.6 14.5 0.00 0.00 0.00 38 1009.4
20260504212000 23 227 1.6 16.1 0.00 0.00 0.00 39 1009.3
20260504211512 23 271 3.2 16.1 0.00 0.00 0.00 38 1009.4
20260504211004 23 198 3.2 9.7 0.00 0.00 0.00 37 1009.4
20260504210502 23 236 0.0 17.7 0.00 0.00 0.00 37 1009.3
20260504210008 23 273 0.0 17.7 0.00 0.00 0.00 36 1009.3
20260504205504 23 213 1.6 20.9 0.00 0.00 0.00 36 1009.3
20260504205007 23 163 1.6 20.9 0.00 0.00 0.00 36 1009.3
20260504204507 23 140 0.0 16.1 0.00 0.00 0.00 37 1009.2
20260504204004 23 205 1.6 16.1 0.00 0.00 0.00 36 1009.3
20260504203504 23 111 3.2 14.5 0.00 0.00 0.00 37 1009.3
20260504203003 23 210 3.2 14.5 0.00 0.00 0.00 38 1009.2
20260504202501 23 207 3.2 14.5 0.00 0.00 0.00 37 1009.3
20260504202001 23 133 0.0 9.7 0.00 0.00 0.00 38 1009.4
20260504201509 23 169 0.0 9.7 0.00 0.00 0.00 38 1009.4
20260504201001 23 146 0.0 11.3 0.00 0.00 0.00 36 1009.5
20260504200504 23 160 1.6 29.0 0.00 0.00 0.00 37 1009.5
20260504200014 23 179 4.8 29.0 0.00 0.00 0.00 37 1009.5
20260504195504 23 198 0.0 20.9 0.00 0.00 0.00 37 1009.7
20260504195002 23 239 3.2 20.9 0.00 0.00 0.00 37 1009.7
20260504194515 23 265 1.6 17.7 0.00 0.00 0.00 35 1009.9
20260504194008 23 159 1.6 17.7 0.00 0.00 0.00 36 1010.0
20260504193502 23 122 0.0 14.5 0.00 0.00 0.00 37 1010.2
20260504193012 23 222 0.0 14.5 0.00 0.00 0.00 37 1010.3
20260504192506 23 165 1.6 12.9 0.00 0.00 0.00 37 1010.2
20260504192001 23 150 0.0 8.0 0.00 0.00 0.00 37 1010.3
20260504191507 23 160 0.0 11.3 0.00 0.00 0.00 37 1010.4
20260504191005 23 157 0.0 16.1 0.00 0.00 0.00 39 1010.5
20260504190504 23 186 0.0 16.1 0.00 0.00 0.00 37 1010.7
20260504190012 23 212 1.6 11.3 0.00 0.00 0.00 35 1010.8
20260504185505 23 199 1.6 11.3 0.00 0.00 0.00 36 1010.9
20260504185007 23 108 3.2 14.5 0.00 0.00 0.00 37 1010.9
20260504184516 23 227 0.0 14.5 0.00 0.00 0.00 36 1011.1
20260504184006 23 173 1.6 12.9 0.00 0.00 0.00 38 1011.2
20260504183506 22 126 3.2 16.1 0.00 0.00 0.00 39 1011.4
20260504183024 22 169 3.2 16.1 0.00 0.00 0.00 38 1011.3
20260504182503 22 198 3.2 12.9 0.00 0.00 0.00 37 1011.3
20260504182005 22 155 3.2 12.9 0.00 0.00 0.00 37 1011.4
20260504181522 22 194 3.2 19.3 0.00 0.00 0.00 37 1011.5
20260504181008 22 310 6.4 19.3 0.00 0.00 0.00 37 1011.5
20260504180504 22 137 1.6 14.5 0.00 0.00 0.00 39 1011.7
20260504180011 22 195 1.6 16.1 0.00 0.00 0.00 37 1011.9
20260504175504 22 229 3.2 16.1 0.00 0.00 0.00 38 1011.9
20260504175001 22 204 1.6 20.9 0.00 0.00 0.00 38 1011.9
20260504174515 22 211 1.6 20.9 0.00 0.00 0.00 38 1011.9
20260504174004 22 169 0.0 17.7 0.00 0.00 0.00 38 1011.9
20260504173504 22 121 1.6 14.5 0.00 0.00 0.00 38 1012.0
20260504173010 21 191 4.8 19.3 0.00 0.00 0.00 40 1012.1
20260504172504 21 169 4.8 19.3 0.00 0.00 0.00 39 1012.3
20260504172010 21 218 3.2 16.1 0.00 0.00 0.00 41 1012.3
20260504171526 21 255 8.0 16.1 0.00 0.00 0.00 39 1012.4
20260504171008 21 164 3.2 9.7 0.00 0.00 0.00 41 1012.5
20260504170508 21 267 1.6 11.3 0.00 0.00 0.00 41 1012.5